Charlevoix, MI

10:52 PM EDT on September 20, 2017 (GMT -0400)
Charlevoix Municipal

Weather History for KCVX - March, 2014

Change the Weather History Date:

Sunday, March 2, 2014

  Actual Average Record
Temperature  
Mean Temperature -2 °F -  
Max Temperature 3 °F 35 °F 42 °F (2004)
Min Temperature -7 °F 26 °F -11 °F (2009)
Degree Days  
Heating Degree Days 67    
Moisture  
Dew Point -9 °F    
Average Humidity 65    
Maximum Humidity 75    
Minimum Humidity 57    
Precipitation  
Precipitation 0.00 in - - ()
Sea Level Pressure  
Sea Level Pressure 30.37 in    
Wind  
Wind Speed 4 mph (WNW)    
Max Wind Speed 15 mph    
Max Gust Speed 18 mph    
Visibility 10 miles    
Events      
Averages and records for this station are not official NWS values.
T = Trace of Precipitation, MM = Missing Value Source: NWS Daily Summary

Daily Weather History Graph

Daily Weather History Graph

Search for Another Location

Airport or City:

Trip Planner

Search our weather history database for the weather conditions in past years. The results will help you decide how hot, cold, wet, or windy it might be!

Date:

Astronomy

Mar. 02, 2014 Rise Set
Actual Time 7:17 AM EST 6:29 PM EST
Civil Twilight 6:47 AM EST 6:59 PM EST
Nautical Twilight 6:13 AM EST 7:33 PM EST
Astronomical Twilight 5:39 AM EST 8:07 PM EST
Moon 7:42 AM EST (3/2) 8:32 PM EST (3/2)
Length of Visible Light 12h 11m
Length of Day
11h 12m
Waxing Crescent, 3% of the Moon is Illuminated
Mar 2
Waxing Crescent
Mar 8
First Quarter
Mar 16
Full
Mar 23
Last Quarter
Mar 30
New

Hourly Weather History & Observations

Time (EST) Temp. Windchill Dew Point Humidity Pressure Visibility Wind Dir Wind Speed Gust Speed Precip Events Conditions
12:15 AM 0.9 °F - -9.4 °F 62% 30.37 in 10.0 mi Calm Calm - N/A   Mostly Cloudy
12:34 AM 0.5 °F - -9.6 °F 63% 30.37 in 10.0 mi Calm Calm - N/A   Mostly Cloudy
12:55 AM 0.3 °F - -9.6 °F 63% 30.37 in 10.0 mi Calm Calm - N/A   Scattered Clouds
1:15 AM 0.5 °F - -9.4 °F 63% 30.38 in 10.0 mi Calm Calm - N/A   Mostly Cloudy
1:34 AM 1.0 °F -6.7 °F -9.4 °F 62% 30.38 in 10.0 mi NNE 3.5 mph - N/A   Scattered Clouds
1:55 AM 1.0 °F - -9.6 °F 61% 30.38 in 10.0 mi Calm Calm - N/A   Scattered Clouds
2:15 AM 0.9 °F - -9.4 °F 62% 30.37 in 10.0 mi Calm Calm - N/A   Mostly Cloudy
2:34 AM 0.3 °F - -9.8 °F 63% 30.37 in 10.0 mi Calm Calm - N/A   Clear
2:55 AM 0.3 °F - -9.4 °F 64% 30.37 in 10.0 mi Calm Calm - N/A   Clear
3:15 AM 0.9 °F - -8.7 °F 64% 30.38 in 10.0 mi Calm Calm - N/A   Scattered Clouds
3:34 AM -0.8 °F - -9.4 °F 67% 30.39 in 10.0 mi Calm Calm - N/A   Scattered Clouds
3:55 AM -1.1 °F - -10.1 °F 66% 30.38 in 10.0 mi Calm Calm - N/A   Mostly Cloudy
4:14 AM -1.7 °F -9.7 °F -9.2 °F 70% 30.39 in 10.0 mi NW 3.5 mph - N/A   Overcast
4:34 AM 1.4 °F - -8.0 °F 65% 30.39 in 10.0 mi Calm Calm - N/A   Overcast
4:55 AM 1.4 °F -9.9 °F -7.8 °F 65% 30.40 in 10.0 mi NNW 5.8 mph - N/A   Overcast
5:14 AM 1.4 °F -8.3 °F -8.0 °F 65% 30.40 in 10.0 mi NW 4.6 mph - N/A   Overcast
5:34 AM 1.4 °F -8.3 °F -8.0 °F 65% 30.39 in 10.0 mi NNW 4.6 mph - N/A   Overcast
5:55 AM 1.4 °F -12.5 °F -7.8 °F 65% 30.39 in 10.0 mi NNW 8.1 mph - N/A   Overcast
6:14 AM 0.9 °F -14.2 °F -7.6 °F 68% 30.39 in 10.0 mi NNW 9.2 mph - N/A   Overcast
6:34 AM 0.7 °F -12.1 °F -7.4 °F 69% 30.39 in 10.0 mi NNW 6.9 mph - N/A   Overcast
6:55 AM 0.7 °F -10.7 °F -7.6 °F 68% 30.39 in 10.0 mi NW 5.8 mph - N/A   Mostly Cloudy
7:14 AM 0.7 °F -12.1 °F -7.4 °F 69% 30.39 in 10.0 mi NNW 6.9 mph - N/A   Overcast
7:35 AM 0.3 °F -12.6 °F -7.6 °F 69% 30.39 in 10.0 mi NW 6.9 mph - N/A   Mostly Cloudy
7:55 AM 0.1 °F -12.8 °F -7.6 °F 70% 30.39 in 10.0 mi NNW 6.9 mph - N/A   Overcast
8:14 AM -0.2 °F -10.1 °F -7.6 °F 71% 30.40 in 10.0 mi NNW 4.6 mph - N/A   Overcast
8:35 AM -0.4 °F -12.0 °F -7.8 °F 71% 30.40 in 10.0 mi NNW 5.8 mph - N/A   Overcast
8:55 AM -0.4 °F -12.0 °F -8.0 °F 70% 30.40 in 10.0 mi North 5.8 mph - N/A   Overcast
9:14 AM -0.4 °F -13.4 °F -8.3 °F 69% 30.40 in 10.0 mi NNW 6.9 mph - N/A   Overcast
9:35 AM -0.4 °F -10.4 °F -8.5 °F 69% 30.40 in 10.0 mi NNW 4.6 mph - N/A   Overcast
9:54 AM -0.4 °F -12.0 °F -8.7 °F 68% 30.40 in 10.0 mi North 5.8 mph - N/A   Overcast
10:15 AM -0.6 °F -10.6 °F -9.4 °F 66% 30.39 in 10.0 mi North 4.6 mph - N/A   Overcast
10:34 AM -0.4 °F -10.4 °F -9.2 °F 66% 30.39 in 7.0 mi North 4.6 mph - N/A   Overcast
10:55 AM 0.5 °F -12.3 °F -8.5 °F 66% 30.39 in 10.0 mi NW 6.9 mph - N/A   Scattered Clouds
11:15 AM 1.0 °F -12.9 °F -8.9 °F 63% 30.39 in 10.0 mi WNW 8.1 mph - N/A   Scattered Clouds
11:34 AM 1.4 °F -12.5 °F -9.0 °F 62% 30.40 in 10.0 mi WNW 8.1 mph - N/A   Scattered Clouds
11:55 AM 1.4 °F -13.5 °F -8.5 °F 63% 30.39 in 10.0 mi WNW 9.2 mph - N/A   Scattered Clouds
12:14 PM 2.1 °F -10.4 °F -7.8 °F 63% 30.39 in 10.0 mi West 6.9 mph - N/A   Mostly Cloudy
12:34 PM 2.3 °F -11.4 °F -7.6 °F 63% 30.38 in 7.0 mi WNW 8.1 mph - N/A   Overcast
12:55 PM 2.8 °F -11.7 °F -6.5 °F 65% 30.38 in 7.0 mi WSW 9.2 mph - N/A   Overcast
1:14 PM 3.2 °F -11.3 °F -6.5 °F 64% 30.38 in 10.0 mi West 9.2 mph - N/A   Mostly Cloudy
1:34 PM 3.0 °F -11.5 °F -6.3 °F 65% 30.37 in 5.0 mi WSW 9.2 mph - N/A   Haze
1:54 PM 2.3 °F -14.2 °F -7.6 °F 63% 30.36 in 10.0 mi WSW 11.5 mph 17.3 mph N/A   Scattered Clouds
2:14 PM 2.1 °F -15.2 °F -8.3 °F 62% 30.36 in 10.0 mi WSW 12.7 mph 18.4 mph N/A   Clear
2:35 PM 1.9 °F -14.7 °F -8.1 °F 63% 30.35 in 10.0 mi WSW 11.5 mph 16.1 mph N/A   Clear
2:54 PM 2.3 °F -16.4 °F -7.6 °F 63% 30.35 in 10.0 mi West 15.0 mph - N/A   Clear
3:14 PM 2.5 °F -13.1 °F -8.1 °F 61% 30.35 in 10.0 mi WSW 10.4 mph - N/A   Clear
3:35 PM 2.8 °F -15.7 °F -6.9 °F 64% 30.35 in 10.0 mi West 15.0 mph - N/A   Clear
3:54 PM 2.5 °F -14.0 °F -8.3 °F 61% 30.35 in 10.0 mi West 11.5 mph 17.3 mph N/A   Clear
4:15 PM 2.8 °F -13.5 °F -7.8 °F 61% 30.34 in 10.0 mi West 11.5 mph - N/A   Clear
4:35 PM 3.0 °F -14.8 °F -8.1 °F 60% 30.33 in 10.0 mi West 13.8 mph - N/A   Clear
4:54 PM 3.2 °F -12.2 °F -8.9 °F 57% 30.34 in 10.0 mi West 10.4 mph - N/A   Clear
5:15 PM 2.8 °F -11.7 °F -8.7 °F 59% 30.34 in 10.0 mi West 9.2 mph - N/A   Clear
5:35 PM 2.8 °F -10.7 °F -8.9 °F 58% 30.33 in 10.0 mi WSW 8.1 mph - N/A   Clear
5:54 PM 2.3 °F -12.4 °F -9.2 °F 59% 30.33 in 10.0 mi WSW 9.2 mph - N/A   Clear
6:15 PM 1.4 °F -9.9 °F -9.0 °F 62% 30.33 in 10.0 mi SW 5.8 mph - N/A   Clear
6:34 PM 1.2 °F -8.5 °F -8.5 °F 64% 30.33 in 10.0 mi SW 4.6 mph - N/A   Clear
6:54 PM 0.5 °F -7.3 °F -9.0 °F 64% 30.33 in 10.0 mi SW 3.5 mph - N/A   Clear
7:15 PM -0.2 °F -10.1 °F -9.4 °F 65% 30.34 in 10.0 mi SW 4.6 mph - N/A   Clear
7:34 PM -0.9 °F -8.9 °F -9.6 °F 67% 30.34 in 10.0 mi SSW 3.5 mph - N/A   Clear
7:54 PM -2.9 °F -11.2 °F -11.0 °F 68% 30.34 in 10.0 mi SW 3.5 mph - N/A   Clear
8:15 PM -4.5 °F - -12.3 °F 69% 30.34 in 10.0 mi Calm Calm - N/A   Clear
8:34 PM -6.2 °F - -13.0 °F 72% 30.34 in 10.0 mi Calm Calm - N/A   Clear
8:54 PM -7.4 °F - -13.5 °F 75% 30.34 in 10.0 mi Calm Calm - N/A   Clear
9:14 PM -7.4 °F -20.4 °F -13.7 °F 74% 30.37 in 10.0 mi North 5.8 mph - N/A   Clear
9:34 PM -1.1 °F - -8.7 °F 70% 30.38 in 10.0 mi Calm Calm - N/A   Clear
9:55 PM -1.5 °F -9.5 °F -10.1 °F 67% 30.39 in 10.0 mi North 3.5 mph - N/A   Clear
10:14 PM -2.0 °F -12.2 °F -10.1 °F 68% 30.39 in 10.0 mi North 4.6 mph - N/A   Clear
10:34 PM -1.7 °F -14.9 °F -9.8 °F 68% 30.39 in 10.0 mi North 6.9 mph - N/A   Scattered Clouds
10:55 PM -2.2 °F -10.4 °F -10.1 °F 69% 30.40 in 10.0 mi North 3.5 mph - N/A   Clear
11:14 PM -2.2 °F - -10.1 °F 69% 30.41 in 10.0 mi Calm Calm - N/A   Clear
11:35 PM -3.3 °F - -10.8 °F 70% 30.42 in 10.0 mi Calm Calm - N/A   Clear
11:54 PM -3.1 °F - -10.5 °F 71% 30.42 in 10.0 mi Calm Calm - N/A   Clear